Weather History for KIPJ - May, 2014

Change the Weather History Date:

Friday, May 9, 2014

  Actual Average (KCLT) Record (KCLT)
Temperature  
Mean Temperature 69 °F 65 °F  
Max Temperature 84 °F 77 °F 94 °F (1889)
Min Temperature 54 °F 54 °F 39 °F (1984)
Degree Days  
Heating Degree Days 0 2  
Month to date heating degree days 25  
Since 1 July heating degree days 3357  
Cooling Degree Days 4 3  
Month to date cooling degree days 20  
Year to date cooling degree days 57  
Growing Degree Days 19 (Base 50)    
Moisture  
Dew Point 59 °F    
Average Humidity 74    
Maximum Humidity 96    
Minimum Humidity 39    
Precipitation  
Precipitation 0.03 in 0.10 in 1.35 in (1989)
Month to date precipitation 0.88  
Year to date precipitation 14.66  
Snow  
Snow 0.00 in 0.00 in 0.00 in ()
Month to date snowfall 0.0  
Since 1 July snowfall 4.3  
Snow Depth -    
Sea Level Pressure  
Sea Level Pressure 30.13 in    
Wind  
Wind Speed 4 mph (WSW)    
Max Wind Speed 17 mph    
Max Gust Speed 24 mph    
Visibility 10 miles    
Events Rain    
T = Trace of Precipitation, MM = Missing Value Source: NWS Daily Summary

Daily Weather History Graph

Daily Weather History Graph

Search for Another Location

Airport or City:

Trip Planner

Search our weather history database for the weather conditions in past years. The results will help you decide how hot, cold, wet, or windy it might be!

Date:

Astronomy

May. 09, 2014 Rise Set
Actual Time 6:25 AM EDT 8:17 PM EDT
Civil Twilight 5:57 AM EDT 8:45 PM EDT
Nautical Twilight 5:23 AM EDT 9:19 PM EDT
Astronomical Twilight 4:47 AM EDT 9:55 PM EDT
Moon 3:24 PM EDT (5/9) 3:15 AM EDT (5/9)
Length of Visible Light 14h 48m
Length of Day
13h 52m
Waxing Gibbous, 73% of the Moon is Illuminated
May 9
Waxing Gibbous
May 14
Full
May 21
Last Quarter
May 28
New
Jun 5
First Quarter

Hourly Weather History & Observations

Time (EDT) Temp. Heat Index Dew Point Humidity Pressure Visibility Wind Dir Wind Speed Gust Speed Precip Events Conditions
12:15 AM 67.8 °F - 53.6 °F 60% 30.14 in 10.0 mi WSW 4.6 mph - N/A   Clear
12:35 AM 67.8 °F - 53.6 °F 60% 30.14 in 10.0 mi WSW 4.6 mph - N/A   Clear
12:55 AM 66.2 °F - 53.6 °F 64% 30.14 in 10.0 mi WSW 4.6 mph - N/A   Clear
1:15 AM 63.9 °F - 53.8 °F 70% 30.14 in 10.0 mi WSW 4.6 mph - N/A   Clear
1:35 AM 62.8 °F - 53.8 °F 72% 30.14 in 10.0 mi WSW 4.6 mph - N/A   Clear
1:55 AM 61.7 °F - 53.6 °F 75% 30.14 in 10.0 mi WSW 3.5 mph - N/A   Clear
2:15 AM 61.0 °F - 53.8 °F 77% 30.14 in 10.0 mi West 3.5 mph - N/A   Clear
2:35 AM 60.6 °F - 53.8 °F 78% 30.13 in 10.0 mi West 3.5 mph - N/A   Clear
2:55 AM 59.9 °F - 53.8 °F 80% 30.13 in 10.0 mi West 3.5 mph - N/A   Clear
3:15 AM 59.2 °F - 53.8 °F 82% 30.13 in 10.0 mi Calm Calm - N/A   Clear
3:35 AM 59.0 °F - 54.7 °F 86% 30.13 in 10.0 mi Calm Calm - N/A   Clear
3:55 AM 57.7 °F - 54.1 °F 88% 30.13 in 10.0 mi Calm Calm - N/A   Clear
4:15 AM 58.3 °F - 55.0 °F 89% 30.13 in 10.0 mi Calm Calm - N/A   Clear
4:35 AM 57.9 °F - 54.9 °F 90% 30.13 in 10.0 mi Calm Calm - N/A   Clear
4:55 AM 56.7 °F - 54.3 °F 92% 30.13 in 10.0 mi Calm Calm - N/A   Clear
5:15 AM 56.8 °F - 54.5 °F 92% 30.13 in 10.0 mi Calm Calm - N/A   Clear
5:35 AM 55.4 °F - 53.6 °F 94% 30.13 in 10.0 mi Calm Calm - N/A   Clear
5:55 AM 56.1 °F - 54.3 °F 94% 30.14 in 10.0 mi Calm Calm - N/A   Clear
6:15 AM 55.9 °F - 54.0 °F 93% 30.14 in 10.0 mi Calm Calm - N/A   Clear
6:35 AM 55.4 °F - 53.2 °F 92% 30.15 in 10.0 mi Calm Calm - N/A   Clear
6:55 AM 54.7 °F - 53.1 °F 94% 30.15 in 10.0 mi Calm Calm - N/A   Clear
7:15 AM 55.8 °F - 54.3 °F 95% 30.16 in 10.0 mi Calm Calm - N/A   Clear
7:35 AM 57.6 °F - 55.6 °F 93% 30.17 in 10.0 mi Calm Calm - N/A   Clear
7:55 AM 60.3 °F - 56.7 °F 88% 30.17 in 10.0 mi Calm Calm - N/A   Clear
8:15 AM 64.4 °F - 58.5 °F 81% 30.17 in 10.0 mi Calm Calm - N/A   Clear
8:35 AM 68.4 °F - 59.0 °F 72% 30.18 in 10.0 mi WSW 6.9 mph - N/A   Clear
8:55 AM 69.8 °F - 59.5 °F 70% 30.18 in 10.0 mi WSW 8.1 mph - N/A   Clear
9:15 AM 71.2 °F - 60.1 °F 68% 30.17 in 10.0 mi WSW 8.1 mph - N/A   Clear
9:35 AM 72.3 °F - 60.6 °F 67% 30.18 in 10.0 mi WSW 6.9 mph - N/A   Clear
9:55 AM 72.5 °F - 60.6 °F 66% 30.17 in 10.0 mi WSW 5.8 mph - N/A   Clear
10:15 AM 75.9 °F - 61.2 °F 60% 30.17 in 10.0 mi SW 4.6 mph - N/A   Clear
10:35 AM 77.7 °F - 61.0 °F 56% 30.17 in 10.0 mi SSW 5.8 mph - N/A   Clear
10:55 AM 77.5 °F - 60.3 °F 55% 30.17 in 10.0 mi SW 4.6 mph - N/A   Clear
11:15 AM 78.8 °F - 60.6 °F 54% 30.17 in 10.0 mi SW 4.6 mph - N/A   Clear
11:35 AM 79.3 °F - 58.3 °F 48% 30.17 in 10.0 mi WSW 6.9 mph - N/A   Clear
11:55 AM 80.6 °F 80.9 °F 58.3 °F 46% 30.17 in 10.0 mi SW 9.2 mph - N/A   Clear
12:15 PM 81.1 °F 81.2 °F 57.2 °F 44% 30.16 in 10.0 mi WSW 5.8 mph - N/A   Clear
12:35 PM 82.0 °F 82.0 °F 57.9 °F 44% 30.16 in 10.0 mi WSW 10.4 mph - N/A   Scattered Clouds
12:55 PM 83.5 °F 82.9 °F 57.4 °F 41% 30.15 in 10.0 mi SW 6.9 mph 17.3 mph N/A   Scattered Clouds
1:15 PM 83.8 °F 83.1 °F 57.0 °F 40% 30.15 in 10.0 mi SW 11.5 mph 20.7 mph N/A   Scattered Clouds
1:35 PM 84.4 °F 83.5 °F 57.2 °F 39% 30.13 in 10.0 mi WSW 17.3 mph 24.2 mph N/A   Scattered Clouds
1:55 PM 83.8 °F 83.3 °F 57.6 °F 41% 30.13 in 10.0 mi SW 15.0 mph - N/A   Scattered Clouds
2:15 PM 82.9 °F 82.7 °F 58.3 °F 43% 30.12 in 10.0 mi SW 9.2 mph 16.1 mph N/A   Mostly Cloudy
2:35 PM 81.5 °F 81.5 °F 57.6 °F 44% 30.11 in 10.0 mi WSW 11.5 mph 18.4 mph N/A   Mostly Cloudy
2:55 PM 83.1 °F 82.9 °F 58.6 °F 43% 30.11 in 10.0 mi WSW 12.7 mph 17.3 mph N/A   Mostly Cloudy
3:15 PM 82.2 °F 82.0 °F 57.9 °F 43% 30.10 in 10.0 mi WSW 12.7 mph 24.2 mph N/A   Scattered Clouds
3:35 PM 80.1 °F 81.0 °F 60.4 °F 51% 30.10 in 10.0 mi WSW 11.5 mph 18.4 mph N/A   Mostly Cloudy
3:55 PM 79.9 °F - 60.8 °F 52% 30.09 in 10.0 mi West 15.0 mph 19.6 mph N/A   Scattered Clouds
4:15 PM 73.0 °F - 63.3 °F 71% 30.11 in 10.0 mi SSW 10.4 mph - N/A Rain Light Rain
4:35 PM 72.0 °F - 61.7 °F 70% 30.10 in 10.0 mi WSW 3.5 mph - N/A Rain Light Rain
4:55 PM 69.6 °F - 61.0 °F 74% 30.10 in 10.0 mi Calm Calm - N/A   Scattered Clouds
5:15 PM 70.5 °F - 60.1 °F 69% 30.08 in 10.0 mi Calm Calm - N/A   Clear
5:35 PM 70.5 °F - 61.0 °F 72% 30.09 in 10.0 mi Calm Calm - N/A   Clear
5:55 PM 71.1 °F - 61.3 °F 71% 30.10 in 10.0 mi SW 5.8 mph - N/A   Scattered Clouds
6:15 PM 67.8 °F - 63.3 °F 85% 30.11 in 10.0 mi South 4.6 mph - 0.02 in Rain Light Rain
6:35 PM 67.1 °F - 63.7 °F 89% 30.10 in 10.0 mi Calm Calm - 0.02 in Rain Light Rain
6:55 PM 67.1 °F - 64.8 °F 92% 30.10 in 10.0 mi Calm Calm - 0.03 in Rain Light Rain
7:15 PM 66.4 °F - 64.8 °F 95% 30.09 in 10.0 mi Calm Calm - N/A   Mostly Cloudy
7:35 PM 66.4 °F - 64.8 °F 95% 30.09 in 7.0 mi Calm Calm - N/A   Scattered Clouds
7:55 PM 66.7 °F - 65.1 °F 95% 30.09 in 10.0 mi Calm Calm - N/A   Scattered Clouds
8:15 PM 66.9 °F - 65.1 °F 94% 30.10 in 10.0 mi Calm Calm - N/A   Scattered Clouds
8:35 PM 66.6 °F - 64.4 °F 93% 30.10 in 10.0 mi Calm Calm - N/A   Scattered Clouds
8:55 PM 65.7 °F - 64.0 °F 94% 30.10 in 7.0 mi Calm Calm - N/A   Overcast
9:15 PM 66.0 °F - 64.6 °F 95% 30.11 in 7.0 mi Calm Calm - N/A   Mostly Cloudy
9:35 PM 65.5 °F - 64.4 °F 96% 30.11 in 7.0 mi Calm Calm - N/A   Scattered Clouds
9:55 PM 65.7 °F - 64.4 °F 96% 30.12 in 10.0 mi Calm Calm - N/A   Mostly Cloudy
10:15 PM 67.5 °F - 63.3 °F 87% 30.13 in 10.0 mi West 6.9 mph - N/A   Mostly Cloudy
10:35 PM 67.3 °F - 63.1 °F 87% 30.13 in 10.0 mi West 4.6 mph - N/A   Scattered Clouds
10:55 PM 66.9 °F - 63.0 °F 87% 30.14 in 10.0 mi WSW 4.6 mph - N/A   Scattered Clouds
11:15 PM 66.0 °F - 63.0 °F 90% 30.11 in 10.0 mi Calm Calm - N/A   Clear
11:35 PM 64.9 °F - 63.5 °F 95% 30.11 in 7.0 mi Calm Calm - N/A   Clear
11:55 PM 65.5 °F - 63.0 °F 92% 30.10 in 10.0 mi Calm Calm - N/A   Clear